Regional Weather Roundup
Issued by NWS San Angelo, TX

Home | Current Version | Previous Version | Text Only | Print | Product List | Glossary On
Versions: 1 2 3 4 5 6 7 8 9 10 11 12 13 14 15 16 17 18 19 20 21 22 23 24 25 26 27 28 29 30 31 32 33 34 35 36 37 38 39 40 41 42 43 44 45 46 47 48 49 50
000
ASUS44 KSJT 032110
RWRSJT
WEST CENTRAL TEXAS REGIONAL WEATHER ROUNDUP
NATIONAL WEATHER SERVICE SAN ANGELO TX
400 PM CDT FRI JUL 03 2015

NOTE: "FAIR" INDICATES FEW OR NO CLOUDS BELOW 12,000 FEET WITH NO
SIGNIFICANT WEATHER AND/OR OBSTRUCTIONS TO VISIBILITY.

TXZ049-054-064>066-071>073-076>078-098-099-113-114-127-128-139-140-
154-155-168>170-032200
...LOCATIONS ACROSS WEST CENTRAL TEXAS...

CITY           SKY/WX    TMP DP  RH WIND       PRES   REMARKS
SAN ANGELO     SUNNY     90  63  40 S13       29.96F
ABILENE        PTSUNNY   89  63  41 SW9       29.97F
DYESS AFB      PTSUNNY   89  67  46 S10G17    29.95F
JUNCTION       SUNNY     90  61  37 S15       29.98F
SWEETWATER     PTSUNNY   86  63  46 SE8       30.02F
BROWNWOOD      CLOUDY    90  63  40 S6        29.97F
COLEMAN        MOCLDY    90  66  44 S7        29.98F
SONORA         SUNNY     88  63  42 SE13      30.02F
OZONA          FAIR      88  59  37 S13       30.01F
BRADY          PTSUNNY   90  61  37 N6        29.98F
$$

TEXAS PANHANDLE/OKLAHOMA PANHANDLE

CITY           SKY/WX    TMP DP  RH WIND       PRES   REMARKS
AMARILLO       SUNNY     87  58  37 MISG      30.05F
BORGER         MOSUNNY   90  61  37 SE6       30.02F
CANADIAN       SUNNY     88  65  45 CALM      29.98F
DALHART        PTSUNNY   91  48  22 E10G18    30.06F
DUMAS          CLEAR     87  58  37 E9        30.04F
GUYMON         NOT AVBL
HEREFORD       PTCLDY    91  55  29 MISG      30.05F
PAMPA          PTCLDY    85  61  44 SE5       30.04F
PERRYTON       SUNNY     88  59  37 SE6       30.01F
$$

SOUTHERN PANHANDLE/SOUTH PLAINS/ROLLING PLAINS

CITY           SKY/WX    TMP DP  RH WIND       PRES   REMARKS
LUBBOCK        PTSUNNY   88  63  43 E5        30.01F
SNYDER         MOSUNNY   85  67  54 SE6       30.00F
CHILDRESS      MOSUNNY   89  69  51 E8        29.96F
SEMINOLE       PTCLDY    89  59  36 SE12      30.03F
$$

PERMIAN BASIN

CITY           SKY/WX    TMP DP  RH WIND       PRES   REMARKS
MIDLAND        PTSUNNY   86  64  47 E9        30.00F
ODESSA         MOSUNNY   86  63  45 E12G17    30.01F
WINK           MOSUNNY   92  61  35 E10G18    29.97F
$$

FAR WEST/SOUTHWEST MOUNTAINS/TRANS PECOS

CITY           SKY/WX    TMP DP  RH WIND       PRES   REMARKS
ALPINE         PTCLDY    86  57  36 NE12G21   30.12F
DRYDEN           N/A     88  66  48 VRB7      29.94F
EL PASO        MOSUNNY   92  53  26 NE8       30.00F
FORT STOCKTON  PTSUNNY   86  64  47 E10G18    30.00F
GUADALUPE PASS CLOUDY    80  55  42 NE25G31   30.14F
MARFA          MOSUNNY  N/A N/A N/A NE14      30.10F
PECOS          PTCLDY    90  60  37 E15       29.97F
$$

DALLAS/FORT WORTH METROPLEX

CITY           SKY/WX    TMP DP  RH WIND       PRES   REMARKS
DFW AIRPORT    PTSUNNY   91  67  44 S12       29.93F
FTW MEACHAM    PTSUNNY   90  69  50 S10       29.93F
DAL-EXECUTIVE  PTSUNNY   89  70  53 VRB7      29.94F
GRAND PRAIRIE  MOSUNNY   91  70  49 MISG      29.95F
ADDISON        NOT AVBL
MESQUITE       PTCLDY    90  72  55 S7        29.94F
LANCASTER      MOCLDY    90  68  49 SW9       29.95F
$$

NORTH CENTRAL TEXAS

CITY           SKY/WX    TMP DP  RH WIND       PRES   REMARKS
SHRMAN/DENISON PTCLDY    87  74  64 SW14      29.95F
GAINESVILLE    MOSUNNY   85  73  68 S3        29.95F
BRIDGEPORT     PTCLDY    88  70  55 W5        29.96F
DENTON         PTSUNNY   87  69  54 SW5       29.93S
WAXAHACHIE     MOCLDY    90  71  53 SW9       29.96F
GRANBURY         N/A     90  68  47 S7        29.96F
$$

WESTERN NORTH TEXAS

CITY           SKY/WX    TMP DP  RH WIND       PRES   REMARKS
WICHITA FALLS  SUNNY     91  72  53 SW15      29.91S
VERNON         MOCLDY    98  59  27 NE6       29.92F
BRECKENRIDGE   MOCLDY    90  61  37 SW7       29.96S
COMANCHE       CLOUDY    87  68  52 SW3       29.98F
$$

CENTRAL AND SOUTH CENTRAL TEXAS

CITY           SKY/WX    TMP DP  RH WIND       PRES   REMARKS
AUSTIN/BERGSTM PTSUNNY   88  70  55 S12       29.95F
WACO           CLOUDY    90  68  48 S12       29.96S
HILLSBORO      MOCLDY    90  67  47 S14       29.96F
TEMPLE         PTSUNNY   90  68  48 S12G20    29.96S
KILLEEN-GRAY   PTSUNNY   89  68  49 S10       29.96F
FORT HOOD      PTSUNNY   90  66  44 S10       29.95F
GEORGETOWN     MOSUNNY   91  64  40 S12G17    29.94F
LAGO VISTA     MOCLDY    89  67  48 SE6       29.99F
SAN MARCOS     MOSUNNY   91  68  46 S13       29.96F
NEW BRAUNFELS  MOSUNNY   91  71  51 S13G20    29.95F
RANDOLPH AFB   PTSUNNY   89  69  51 SE10      29.96F
SAN ANTONIO    PTSUNNY   90  71  53 SE12      29.96F
STINSON        MOSUNNY   91  70  49 S13G20    29.92F
PLEASANTON     NOT AVBL
LA GRANGE      MOSUNNY   91  75  59 S12G17    29.94F
GIDDINGS       PTCLDY    89  69  51 S7        29.99F
$$

EAST TEXAS

CITY           SKY/WX    TMP DP  RH WIND       PRES   REMARKS
PARIS          MOSUNNY   82  70  65 SW15G22   29.94F
CLARKSVILLE    NOT AVBL
TYLER          CLOUDY    88  74  63 VRB5      29.97S
LONGVIEW       CLOUDY    91  75  59 W8        29.96S
PALESTINE      MOCLDY    91  72  54 SW8       29.98S
NACOGDOCHES    PTSUNNY   91  75  59 S12       29.97S
$$

TEXAS HILL COUNTRY AND EDWARDS PLATEAU

CITY           SKY/WX    TMP DP  RH WIND       PRES   REMARKS
LLANO          PTCLDY    91  64  40 S9G17     29.99F
HORSESHOE BAY  FAIR      92  65  41 SW3G17    29.96F
KERRVILLE      SUNNY     86  68  55 S12       30.00F
FREDERICKSBRG  MOSUNNY   86  64  48 S8        29.99F
ROCKSPRINGS    PTCLDY    86  66  51 SE12      30.02F
HONDO          MOSUNNY   88  69  53 SE15      29.97F
UVALDE         PTCLDY    88  69  53 SE12G18   29.94F
DEL RIO        PTSUNNY   90  67  46 SE16G24   29.90F
$$

SOUTHEAST TEXAS

CITY           SKY/WX    TMP DP  RH WIND       PRES   REMARKS
COLLEGE STN    PTSUNNY   91  70  49 S10       29.96F
CALDWELL       MOCLDY    90  73  58 SE8       29.99F
CROCKETT         N/A     93  75  55 SW7       29.99F
BRENHAM        PTSUNNY   91  73  54 S7        29.97F
HUNTSVILLE     MOSUNNY   92  71  50 S9        29.97F
CONROE         PTSUNNY   91  69  48 SE8       29.96F
HOUSTON BUSH   CLOUDY    89  74  60 SE12      29.97F
HOUSTON HOBBY  CLOUDY    87  75  67 SE10G17   29.97F
PERLAND        CLOUDY    89  74  60 S10       29.99F
WHARTON        MOCLDY    89  75  62 SE13      29.98F
$$

THE UPPER TEXAS COAST

CITY           SKY/WX    TMP DP  RH WIND       PRES   REMARKS
ORANGE         PTCLDY    90  68  49 S13       30.00F
PORT ARTHUR    MOSUNNY   91  74  57 S13       29.98F
GALVESTON      MOSUNNY   89  78  70 S13       30.00F
ANGLETON       PTSUNNY   88  75  65 S14       29.98F
BAY CITY       MOCLDY    91  75  58 S13G18    29.98F
$$

TEXAS COASTAL BEND, RIO GRANDE PLAINS DEEP SOUTH TEXAS

CITY           SKY/WX    TMP DP  RH WIND       PRES   REMARKS
VICTORIA       MOSUNNY   90  72  55 SE17      29.96F
BEEVILLE       FAIR      89  73  59 SE14G20   29.94F
ROCKPORT       LGT RAIN  90  76  63 SE15G22   29.95F
PORT ARANSAS   CLEAR     87  79  77 SE12      29.95F
PORT LAVACA    MOCLDY    87  76  69 SE14      29.97F
CORPUS CHRISTI PTSUNNY   89  74  60 SE21      29.94F
KINGSVILLE NAS SUNNY     91  77  63 SE18G26   29.93F
COTULLA        MOSUNNY   93  68  43 SE17G25   29.90F
LAREDO         MOSUNNY   97  66  35 SE22      29.89F
BROWNSVILLE    PTSUNNY   90  75  62 SE17      29.93S
PORT ISABEL    MOSUNNY   87  77  72 SE15      29.92F
HEBBRONVILLE     N/A     91  66  44 SE18      29.92F
MCALLEN        MOSUNNY   94  72  48 SE18G25   29.90F
WESLACO        PTSUNNY   91  71  50 SE13G23   29.91S
FALFURRIAS     PTCLDY    91  74  57 SE16G23   29.91S
EDINBURG       PTCLDY    93  71  48 SE20      29.91S
$$



USA.gov is the U.S. government's official web portal to all federal, state and local government web resources and services.